RH
39 38 39 45 47 49 47 52 52 53 53 52 68 81 83 80 74 70 64 62 65 66 70 92 96 97 98
43 41 41 44 49 51 52 45 54 51 47 65 62 65 71 72 76 75 70 67 68 75 76 70 72 80 94
48 50 45 46 50 53 52 48 55 60 67 74 65 69 74 78 76 79 76 70 74 75 76 73 73 76 79
50 54 48 47 50 53 52 51 53 54 63 63 67 68 65 72 81 91 87 75 71 72 74 72 69 66 65
55 57 56 53 51 50 53 51 52 56 58 58 59 60 65 79 86 87 89 86 76 76 77 76 71 69 68
65 62 57 55 54 55 57 58 57 52 62 72 64 67 67 68 78 80 61 78 86 76 70 73 71 68 67
70 63 59 58 58 60 63 64 56 53 61 68 62 63 64 64 70 78 72 62 59 70 73 70 69 72 66
65 66 64 62 64 69 68 64 59 59 61 70 58 56 57 62 67 73 63 64 65 66 65 73 75 70 67
80 85 85 85 84 79 80 78 65 60 58 68 64 61 67 69 64 68 86 85 76 71 71 82 97 95 89
62 70 81 84 90 89 88 80 70 68 62 68 64 68 62 57 68 82 88 76 85 99 99 94 98 100 98
69 69 70 71 80 82 88 87 82 72 61 74 83 72 69 67 63 69 79 90 89 94 99 93 91 94 99
76 74 72 73 80 84 75 74 84 79 75 78 89 81 77 77 75 74 79 80 96 98 98 95 93 88 90
76 76 76 80 85 78 79 89 85 92 94 90 90 97 94 85 81 82 82 87 86 96 77 87 94 91 88
74 75 77 83 93 92 96 98 100 98 87 75 67 81 100 95 90 87 86 88 83 90 99 92 98 98 98
82 82 84 87 92 93 99 100 97 91 90 92 71 79 90 96 98 91 92 88 88 84 97 100 84 96 99
84 83 84 87 93 92 99 99 95 93 94 90 92 98 92 88 86 97 89 92 93 91 91 100 99 95 98
96 95 95 96 92 89 95 97 97 93 93 94 97 95 87 87 70 81 99 96 98 100 96 99 100 99 98
Wind_Speed
27 25 25 25 27 30 27 26 28 29 30 29 27 26 25 25 25 24 20 19 20 21 22 16 16 17 19
31 26 24 23 24 28 31 28 27 28 30 30 30 28 28 26 25 26 24 21 19 19 20 19 18 19 20
27 28 25 24 24 25 28 27 25 25 27 29 26 25 25 25 26 27 26 23 19 19 20 21 20 20 21
24 27 25 24 22 23 24 23 24 23 22 22 23 22 22 24 24 24 25 24 21 18 16 16 18 19 22
21 23 23 23 21 21 20 21 23 23 24 25 23 20 17 16 17 20 22 24 22 19 19 19 21 22 22
24 22 27 25 23 21 19 18 11 19 17 15 14 16 18 17 17 16 15 16 21 22 22 22 22 23 24
29 29 29 28 25 24 21 20 20 21 17 17 17 19 19 19 19 19 18 19 21 21 22 23 24 25 25
27 30 30 30 28 27 25 24 22 23 20 17 18 18 18 19 20 21 19 20 20 21 22 23 25 28 25
28 30 31 31 28 23 22 19 16 21 20 17 16 17 16 18 18 15 11 13 18 20 21 20 21 18 19
25 24 24 26 27 29 26 19 16 14 17 14 14 7 6 9 7 10 11 12 10 10 13 13 15 17 20
25 24 23 21 21 21 25 24 18 18 15 11 8 10 9 14 13 12 13 13 11 13 9 10 11 11 15
23 22 21 21 20 20 23 23 22 23 17 14 9 9 11 13 13 11 17 16 14 14 13 13 15 14 15
21 20 20 20 19 17 18 19 18 19 17 16 17 15 14 16 18 19 17 12 16 15 18 17 14 16 16
21 20 18 18 16 15 16 17 19 18 21 18 20 20 16 18 19 25 21 13 14 18 16 15 14 12 15
21 20 18 17 18 16 17 16 16 16 14 13 21 20 17 18 19 23 21 19 19 22 20 19 21 23 21
20 20 19 17 17 16 17 15 16 13 13 15 16 15 14 21 26 25 22 21 21 21 23 18 19 21 20
18 18 17 17 16 16 17 18 15 13 15 16 15 15 8 10 19 16 19 16 18 20 22 20 17 18 17
Wind_Direction
287 286 282 278 281 288 289 284 280 279 280 279 273 269 263 260 261 264 268 269 262 257 257 262 261 258 256
287 286 286 283 278 280 286 283 276 274 273 273 272 270 265 260 258 256 259 265 263 260 263 267 267 264 262
279 285 286 283 278 276 282 283 276 273 270 272 273 271 268 264 258 255 252 256 261 259 260 261 264 266 265
272 279 283 282 278 277 280 283 282 277 272 268 269 269 270 262 258 254 247 247 254 255 254 258 267 273 269
266 273 277 280 274 277 278 281 282 280 274 267 267 264 264 264 262 256 246 244 249 252 259 264 272 273 275
266 266 271 274 277 271 272 277 281 283 281 282 259 265 268 264 261 261 268 258 248 252 261 263 270 271 276
264 264 265 267 272 272 267 267 269 276 279 281 275 274 273 270 269 272 270 264 264 261 261 263 269 270 271
262 265 265 267 265 264 265 269 272 270 265 268 278 278 283 276 270 273 278 270 263 262 265 266 268 270 267
264 265 266 268 265 263 255 254 258 260 254 256 275 285 285 282 279 272 285 292 268 257 258 266 271 262 262
269 264 267 268 261 248 245 240 240 265 264 261 266 291 299 286 277 289 285 311 304 279 251 260 261 261 260
269 267 264 264 263 254 242 236 236 248 250 240 251 268 263 288 292 296 297 299 306 299 294 290 280 281 274
264 261 260 260 259 256 248 237 231 241 245 240 242 242 267 278 283 289 301 294 287 287 286 283 289 289 279
261 259 254 255 262 272 261 250 243 239 237 237 247 247 253 263 275 281 294 295 292 276 278 280 280 288 293
260 261 258 251 253 252 245 232 228 240 243 243 259 264 257 256 259 268 270 267 279 290 282 279 280 273 283
261 260 254 246 244 250 242 241 235 238 237 243 265 258 255 259 255 255 263 266 264 274 277 270 274 277 274
253 256 254 249 244 244 237 231 231 234 253 263 244 238 256 272 251 253 260 270 274 267 266 260 267 268 267
249 251 252 250 247 245 231 231 224 232 239 251 238 233 254 259 263 251 243 254 267 262 257 248 252 262 263